Content
SEND FEEDBACK

Daily
Averages
Monthly
Summary
United States of America

ACHANG BAY, GUAM


Home > North America > United States > Guam
Elevation: 30 feet     Latitude: 13 16N     Longitude: 144 45E

WEATHER
 
SELECT A DAY
Number of Records: 356,690;   Date Range: 1/1/95 - 12/20/14
 
SHARE

PRINT THIS DATA

[ ← Previous Day ]
WEATHER ALMANAC - AUGUST 18, 2013
[ Next Day → ]
[ °C ]   °F
Weather ElementAverageHighLow
Temperature80.3 °F85.6 °F (12:55 pm)77 °F (7:23 pm)
Dewpoint74.7 °F77 °F (6:30 pm)73.2 °F (12:55 pm)
Humidity83.4 %94 % (6:30 pm)66 % (12:55 pm)
Barometer29.82 in29.86 in (8:55 am)29.78 in (2:55 pm)
Wind Speed6.3 mph12.7 mph (7:05 pm)
Wind Gust17.3 mph (5:42 pm)
Weather ElementAverage
Visibility9.9 mi
Wind DirectionESE (113.9 °)

Weather ElementTotal
Precipitation---
Cooling Degree Days16.3 (Base 65)
Growing Degree Days31.3 (Base 50)
Averaged from 38 records on August 18, 2013
WEATHER CONDITIONS BREAKOUT
WIND DIRECTION BREAKOUT
WEATHER BY HOUR - AUGUST 18, 2013
[ °C ]   °F
Local TimeTemperatureDewpointHumidityBarometerVisibilityWind DirectionWind SpeedGust SpeedPrecipitationEventsConditions
1:55 AM78.6 °F74.8 °F88 %29.80 in10.0 miSouth (170°)5.8 mphScattered Clouds
2:06 AM78.8 °F75.2 °F89 %29.80 in10.0 miSouth (180°)5.8 mphMostly Cloudy
2:39 AM78.8 °F73.4 °F83 %29.80 in10.0 miSouth (180°)4.6 mphScattered Clouds
2:55 AM77.9 °F73.9 °F88 %29.79 in10.0 miSouth (190°)4.6 mphPartly Cloudy
3:55 AM77.4 °F73.9 °F89 %29.79 in10.0 miSouth (180°)4.6 mphClear
4:55 AM77.4 °F73.8 °F89 %29.80 in10.0 miSSE (160°)5.8 mphClear
5:55 AM77.7 °F73.6 °F87 %29.82 in10.0 miSSE (150°)4.6 mphPartly Cloudy
6:55 AM78.6 °F74.3 °F87 %29.83 in10.0 miSSE (160°)5.8 mphClear
7:55 AM82.2 °F74.1 °F76 %29.85 in10.0 miSSE (150°)4.6 mphClear
8:55 AM84.0 °F74.5 °F73 %29.86 in10.0 miSSE (150°)5.8 mphPartly Cloudy
9:55 AM84.9 °F75.2 °F73 %29.86 in10.0 miSSE (160°)6.9 mphPartly Cloudy
11:55 AM85.3 °F73.4 °F67 %29.83 in10.0 miESE (110°)6.9 mphMostly Cloudy
12:55 PM85.6 °F73.2 °F66 %29.80 in10.0 miESE (110°)6.9 mphMostly Cloudy
1:55 PM85.6 °F74.3 °F69 %29.79 in10.0 miSE (130°)6.9 mphClear
2:55 PM85.6 °F74.7 °F70 %29.78 in10.0 miSE (130°)4.6 mphClear
3:55 PM84.6 °F73.9 °F70 %29.78 in10.0 miESE (120°)4.6 mphClear
4:55 PM83.7 °F73.9 °F72 %29.78 in10.0 miEast (80°)4.6 mphPartly Cloudy
5:42 PM82.4 °F73.4 °F74 %29.80 in9.0 miSE (130°)10.4 mph17.3 mphMostly Cloudy
5:44 PM82.4 °F73.4 °F74 %29.80 in9.0 miSE (130°)6.9 mph17.3 mphScattered Clouds
5:45 PM82.4 °F73.4 °F74 %29.80 in9.0 miSE (140°)5.8 mph17.3 mphMostly Cloudy
5:48 PM82.4 °F75.2 °F79 %29.80 in9.0 miSE (140°)5.8 mph17.3 mphRainLight Rain
5:55 PM81.1 °F75.7 °F84 %29.81 in10.0 miSE (130°)3.5 mph0.00 inRainLight Rain
6:09 PM80.6 °F75.2 °F84 %29.81 in10.0 miCalmScattered Clouds
6:30 PM78.8 °F77.0 °F94 %29.81 in10.0 miSSW (200°)6.9 mphRainLight Rain
6:41 PM78.8 °F77.0 °F94 %29.82 in10.0 miSE (140°)11.5 mphRainLight Rain
6:55 PM79.2 °F75.4 °F88 %29.83 in10.0 miVariable6.9 mph0.00 inLight Drizzle
6:58 PM78.8 °F75.2 °F89 %29.83 in10.0 miEast (90°)10.4 mphMostly Cloudy
7:05 PM78.8 °F75.2 °F89 %29.83 in10.0 miEast (90°)12.7 mph16.1 mphLight Drizzle
7:09 PM78.8 °F75.2 °F89 %29.83 in10.0 miEast (90°)9.2 mph17.3 mphLight Drizzle
7:13 PM78.8 °F75.2 °F89 %29.83 in10.0 miEast (90°)8.1 mph17.3 mphMostly Cloudy
7:23 PM77.0 °F75.2 °F94 %29.83 in10.0 miVariable6.9 mphMostly Cloudy
7:24 PM77.0 °F75.2 °F94 %29.83 in10.0 miEast (90°)9.2 mphMostly Cloudy
7:26 PM77.0 °F75.2 °F94 %29.83 in10.0 miEast (90°)10.4 mphMostly Cloudy
7:55 PM77.5 °F75.2 °F92 %29.83 in10.0 miEast (80°)9.2 mph0.00 inPartly Cloudy
8:55 PM77.7 °F75.0 °F91 %29.84 in10.0 miEast (100°)3.5 mphMostly Cloudy
9:55 PM78.8 °F74.7 °F87 %29.84 in10.0 miCalmMostly Cloudy
10:55 PM78.6 °F75.4 °F90 %29.83 in10.0 miNE (40°)4.6 mphMostly Cloudy
11:55 PM79.5 °F76.5 °F90 %29.82 in10.0 miNE (50°)4.6 mphMostly Cloudy
Hourly data recorded from PGUA, located miles away from Achang Bay, Guam







STORIES FROM OUR PARTNERS